[[{"header":{"parameterUnit":"m.s-1","parameterCategory":1,"la1":30.2991,"la2":30.254,"lo1":-89.0895,"lo2":-89.0444,"dy":0.0017,"dx":0.0017,"nx":28,"ny":28,"refTime":"2024-04-30T03:00:00:Z","depth":0,"parameterNumber":2,"parameterNumberName":"U-component_of_WINDS"},"data":[0,0,0,0,0,0,0,0,0,0,0,0,0,0,0,0,0,0,0,0,0,0,0,0,0,0,0,0,0,0,0,0,0,0,0,0,0,0,0,0,0,0,0,0,0,0,0,0,0,0,0,0,0,0,0,0,0,0,0.7008,0.7008,0,0.7054,0.7054,0.7055,0.7039,0.7038,0.7037,0.7036,0.7086,0.7089,0.7091,0,0,0,0,0,0,0,0,0,0,0,0,0,0.691,0.6912,0.7008,0.7008,0.7009,0.7054,0.7054,0.7055,0.704,0.7038,0.7037,0.7036,0.7086,0.7088,0.7091,0,0,0,0,0,0,0,0,0,0,0,0,0,0.6954,0.6912,0.7008,0.7007,0.7007,0.7053,0.7054,0.7055,0.704,0.7038,0.7037,0.7035,0.7085,0.7088,0.7092,0.7143,0,0,0.7102,0.7103,0,0,0,0,0,0,0,0,0.6951,0.6957,0.7006,0.7007,0.7007,0.7039,0.7038,0.7085,0.704,0.7027,0.7036,0.7035,0.7072,0.7077,0.7089,0.7145,0.7147,0.7102,0.7104,0.7106,0.7107,0,0,0,0,0,0,0,0.6948,0.6955,0.7026,0.7007,0.7008,0.7005,0.7009,0.7047,0.7058,0.7028,0.7027,0.7033,0.7072,0.7085,0.709,0.7148,0.7102,0.7105,0.7107,0.7109,0.7249,0.7251,0,0,0,0,0,0,0.6945,0.6953,0.7024,0.7027,0.6975,0.7008,0.7013,0.703,0.7057,0.706,0.7034,0.7032,0.708,0.7086,0.7091,0.7153,0.7106,0.7109,0.7111,0.7248,0.725,0.7252,0,0,0,0,0,0,0.6942,0.6951,0.7023,0.699,0.6999,0.7011,0.7031,0.7032,0.7045,0.7062,0.7064,0.7045,0.7079,0.7087,0.713,0.7155,0.711,0.7114,0.7246,0.7248,0.7251,0.7277,0,0,0,0,0,0,0.694,0.695,0.6969,0.699,0.7001,0.706,0.7032,0.7034,0.7051,0.7048,0.7073,0.7075,0.7079,0.7125,0.7133,0.7159,0.7116,0.7244,0.7247,0.725,0.7274,0.728,0.7286,0,0,0,0,0,0.6936,0.6975,0.697,0.6979,0.7024,0.7061,0.7067,0.7069,0.7053,0.7072,0.7083,0.7074,0.7151,0.713,0.7139,0.7165,0.7242,0.7246,0.725,0.7272,0.7279,0.7285,0,0,0,0,0,0,0.6958,0.6978,0.6973,0.7019,0.7039,0.7058,0.7083,0.7077,0.7102,0.7099,0.7101,0.7107,0.7152,0.7163,0.7139,0.7217,0.7194,0.72,0.7207,0.7215,0.722,0.7217,0.7119,0,0,0,0,0,0.6968,0.6995,0.7012,0.7052,0.7061,0.7071,0.7087,0.7087,0.7107,0.7115,0.7129,0.715,0.7178,0.7197,0.7225,0.7276,0.7281,0.7299,0.7305,0.7309,0.7314,0.7342,0.735,0.7264,0.7264,0.7264,0,0,0.6989,0.7003,0.7021,0.7056,0.7071,0.71,0.7077,0.7109,0.7131,0.712,0.7162,0.7173,0.7196,0.7244,0.7266,0.7255,0.7339,0.7314,0.7318,0.732,0.7347,0.7355,0.7363,0.7267,0.7266,0.7266,0,0,0.7042,0.7056,0.709,0.7106,0.7128,0.7134,0.7142,0.7163,0.717,0.7211,0.7204,0.7231,0.728,0.7297,0.7312,0.7373,0.7366,0.7382,0.7412,0.7439,0.7446,0.7452,0.7473,0.7481,0.7387,0.7387,0.7387,0,0.7066,0.7108,0.7109,0.7142,0.7158,0.7149,0.7184,0.72,0.723,0.7242,0.7229,0.7291,0.7306,0.7358,0.7372,0.7385,0.7395,0.7379,0.7445,0.7451,0.7456,0.7477,0.7485,0.7389,0.7388,0.7388,0.7388,0,0.7137,0.7166,0.7192,0.7221,0.724,0.7274,0.7281,0.73,0.7299,0.7307,0.735,0.7368,0.7398,0.7411,0.741,0.7462,0.7455,0.7444,0.7421,0.7466,0.7486,0.7494,0.7391,0.739,0.739,0.739,0,0,0.7204,0.7233,0.7242,0.7255,0.728,0.7303,0.7338,0.7367,0.7383,0.7405,0.7434,0.7476,0.7466,0.7483,0.7484,0.7508,0.7555,0.7494,0.7495,0.7505,0.7614,0.7622,0.7631,0.7551,0.7553,0.7554,0.7612,0,0.7259,0.7318,0.732,0.7374,0.7401,0.7394,0.7424,0.7442,0.7451,0.7476,0.7486,0.7515,0.7499,0.751,0.7533,0.7545,0.7577,0.7541,0.7579,0.758,0.7572,0.7642,0.765,0.7704,0.762,0.7621,0.7622,0,0.7331,0.7354,0.7411,0.7431,0.7443,0.747,0.7497,0.7521,0.7543,0.7547,0.7566,0.7564,0.76,0.7576,0.7626,0.7601,0.7617,0.7625,0.7627,0.763,0.7603,0.7647,0.7722,0.773,0.7634,0.7633,0.7632,0,0.7374,0.742,0.7459,0.7471,0.7496,0.7515,0.7527,0.7547,0.7564,0.7588,0.76,0.7628,0.7644,0.7667,0.7673,0.7655,0.7722,0.7699,0.7727,0.7727,0.7741,0.774,0.782,0.7752,0.7752,0.7752,0.7752,0,0.7436,0.747,0.7479,0.7503,0.7543,0.7545,0.7584,0.7595,0.7613,0.7639,0.7635,0.7661,0.7667,0.7694,0.7699,0.774,0.7747,0.7752,0.7753,0.7752,0.7751,0.7762,0.7758,0.7754,0.7754,0.7753,0.7753,0,0.749,0.7497,0.754,0.756,0.7566,0.7594,0.7612,0.7636,0.7644,0.7678,0.7686,0.7699,0.7731,0.7739,0.7777,0.7781,0.7828,0.7826,0.782,0.782,0.7848,0.7845,0.7937,0.7949,0.7874,0.7875,0.7875,0,0.7528,0.7555,0.7578,0.7595,0.7607,0.7636,0.7653,0.7658,0.7676,0.7703,0.7724,0.7755,0.778,0.7831,0.7844,0.7873,0.7871,0.7902,0.7876,0.7874,0.7871,0.787,0.7872,0.7906,0.7907,0.7908,0.7908,0,0.7595,0.7598,0.7623,0.765,0.7671,0.7693,0.7714,0.7728,0.7736,0.7757,0.7789,0.7808,0.7847,0.7878,0.7907,0.792,0.7916,0.7916,0.7924,0.7923,0.7919,0.7922,0.7833,0.7914,0.7913,0.7913,0.7913,0.7912,0.7643,0.7666,0.7686,0.7714,0.773,0.775,0.7773,0.7784,0.781,0.7842,0.7843,0.7878,0.7899,0.7938,0.7953,0.7981,0.7972,0.7983,0.7986,0.7989,0.7991,0.7915,0.7986,0.7986,0.7986,0.7986,0.7986,0,0.7709,0.7722,0.7748,0.7777,0.78,0.7793,0.7816,0.7835,0.7866,0.7886,0.791,0.7947,0.7977,0.7993,0.8023,0.8042,0.8041,0.805,0.8048,0.8051,0.7998,0.7987,0.805,0.805,0.805,0.805,0.805,0.805,0.7746,0.7785,0.779,0.7837,0.785,0.7883,0.7897,0.7915,0.7931,0.7972,0.7997,0.8007,0.8025,0.8057,0.8084,0.8088,0.8099,0.8109,0.8112,0.8062,0.8055,0.8049,0.8039,0.8112,0.8112,0.8164,0.8164,0.8164]},{"header":{"parameterUnit":"m.s-1","parameterCategory":1,"la1":30.2991,"la2":30.254,"lo1":-89.0895,"lo2":-89.0444,"dy":0.0017,"dx":0.0017,"nx":28,"ny":28,"refTime":"2024-04-30T03:00:00:Z","depth":0,"parameterNumber":3,"parameterNumberName":"V-component_of_WINDS"},"data":[0,0,0,0,0,0,0,0,0,0,0,0,0,0,0,0,0,0,0,0,0,0,0,0,0,0,0,0,0,0,0,0,0,0,0,0,0,0,0,0,0,0,0,0,0,0,0,0,0,0,0,0,0,0,0,0,0,0,2.2423,2.2423,0,2.2431,2.2431,2.2431,2.241,2.241,2.2409,2.2409,2.2413,2.2413,2.2414,0,0,0,0,0,0,0,0,0,0,0,0,0,2.2384,2.2384,2.2423,2.2423,2.2423,2.2431,2.2431,2.2431,2.2411,2.241,2.2409,2.2408,2.2413,2.2413,2.2414,0,0,0,0,0,0,0,0,0,0,0,0,0,2.2397,2.2385,2.2423,2.2414,2.2413,2.2431,2.2431,2.2431,2.2411,2.241,2.2409,2.2408,2.2412,2.2413,2.2414,2.244,0,0,2.2418,2.2418,0,0,0,0,0,0,0,0,2.2396,2.2398,2.2415,2.2415,2.2414,2.2419,2.2419,2.2434,2.2411,2.2412,2.2409,2.2407,2.2415,2.2416,2.2419,2.244,2.244,2.2418,2.2418,2.2419,2.2419,0,0,0,0,0,0,0,2.2395,2.2398,2.2426,2.2416,2.2415,2.2407,2.2408,2.2421,2.2419,2.2412,2.241,2.2411,2.2415,2.2418,2.2419,2.244,2.2418,2.2419,2.2419,2.242,2.2475,2.2476,0,0,0,0,0,0,2.2396,2.2397,2.2426,2.2426,2.2403,2.2409,2.241,2.2418,2.2418,2.2418,2.2412,2.241,2.2417,2.2418,2.2419,2.2445,2.2419,2.242,2.242,2.2475,2.2476,2.2477,0,0,0,0,0,0,2.2396,2.2399,2.2426,2.2411,2.2414,2.2411,2.242,2.2419,2.2423,2.2419,2.2418,2.2417,2.2416,2.2418,2.2434,2.2445,2.242,2.2421,2.2474,2.2475,2.2476,2.25,0,0,0,0,0,0,2.2395,2.2399,2.2411,2.2412,2.2415,2.2442,2.2421,2.242,2.2425,2.2423,2.2423,2.2422,2.2416,2.2432,2.2435,2.2446,2.2422,2.2472,2.2474,2.2476,2.2498,2.2502,2.2505,0,0,0,0,0,2.2393,2.2418,2.2412,2.2415,2.243,2.2443,2.2445,2.2438,2.2426,2.2436,2.2433,2.2422,2.2444,2.2434,2.2437,2.2449,2.2472,2.2474,2.2476,2.2497,2.2501,2.2505,0,0,0,0,0,0,2.2418,2.2418,2.2411,2.2437,2.244,2.244,2.2453,2.2444,2.2449,2.2447,2.2437,2.2437,2.2453,2.2453,2.2442,2.247,2.2455,2.2458,2.247,2.2475,2.2478,2.2477,2.2423,0,0,0,0,0,2.2427,2.2439,2.2437,2.246,2.2462,2.2457,2.2462,2.2456,2.2459,2.246,2.2458,2.2459,2.2465,2.247,2.2477,2.2498,2.2495,2.2507,2.251,2.2513,2.2515,2.2521,2.2525,2.2483,2.2483,2.2483,0,0,2.2444,2.2446,2.2454,2.2465,2.2467,2.2477,2.2458,2.2471,2.2478,2.2461,2.2476,2.2474,2.2474,2.2491,2.2499,2.2491,2.2526,2.2516,2.2518,2.2518,2.2524,2.2528,2.2531,2.2484,2.2484,2.2484,0,0,2.2481,2.2485,2.2502,2.2504,2.2506,2.2502,2.2506,2.2506,2.2504,2.2518,2.2504,2.251,2.2524,2.2523,2.2524,2.2555,2.2544,2.2557,2.2575,2.2582,2.2585,2.2588,2.2596,2.2599,2.2559,2.2559,2.2559,0,2.2503,2.252,2.2512,2.2524,2.2527,2.2513,2.2528,2.2529,2.2533,2.2534,2.2526,2.2538,2.2538,2.2553,2.256,2.2562,2.2564,2.2557,2.2585,2.2588,2.2591,2.2598,2.2601,2.2561,2.2561,2.256,2.256,0,2.2543,2.2555,2.2568,2.2571,2.2576,2.259,2.2582,2.2587,2.2579,2.2574,2.2586,2.2584,2.2588,2.2591,2.2584,2.2603,2.2598,2.2588,2.2572,2.2596,2.2603,2.2606,2.2563,2.2562,2.2562,2.2561,0,0,2.2598,2.2595,2.2599,2.2599,2.2598,2.2606,2.2616,2.262,2.2623,2.2625,2.2631,2.264,2.2629,2.2631,2.2623,2.2629,2.2649,2.2617,2.2617,2.2621,2.2665,2.2671,2.2675,2.2641,2.2642,2.2642,2.2664,0,2.2632,2.2652,2.2643,2.2663,2.2671,2.2655,2.2663,2.2662,2.2657,2.2661,2.2655,2.266,2.2647,2.2647,2.2652,2.2645,2.2657,2.2644,2.2644,2.2645,2.2644,2.2679,2.2687,2.2707,2.2667,2.2667,2.2667,0,2.2675,2.2677,2.2698,2.2692,2.2694,2.2703,2.2703,2.2708,2.2704,2.27,2.2699,2.2689,2.2695,2.268,2.2687,2.2678,2.2678,2.2674,2.2674,2.2673,2.2657,2.2676,2.2714,2.2716,2.2672,2.2672,2.2671,0,2.2708,2.2717,2.2729,2.273,2.2724,2.2729,2.2727,2.2722,2.2724,2.2723,2.2722,2.2723,2.2722,2.2721,2.2709,2.27,2.2716,2.2701,2.271,2.271,2.2714,2.2713,2.275,2.2716,2.2716,2.2716,2.2716,0,2.2746,2.2758,2.2744,2.2751,2.2763,2.2751,2.2762,2.2758,2.2753,2.2757,2.2743,2.2747,2.2732,2.2733,2.2723,2.2728,2.2729,2.2723,2.272,2.2724,2.2724,2.2722,2.272,2.2717,2.2717,2.2717,2.2716,0,2.2785,2.2777,2.2788,2.2781,2.2779,2.2787,2.278,2.2784,2.2777,2.2782,2.2782,2.277,2.277,2.2758,2.2756,2.2749,2.2757,2.2753,2.2759,2.2756,2.2765,2.2763,2.28,2.2803,2.277,2.277,2.277,0,2.2809,2.2818,2.281,2.2812,2.281,2.2813,2.2814,2.2801,2.2802,2.2796,2.28,2.2799,2.2798,2.2797,2.2787,2.2784,2.2778,2.2791,2.2777,2.2779,2.2775,2.2774,2.2773,2.2793,2.2794,2.2794,2.2795,0,2.285,2.2844,2.2847,2.2846,2.2846,2.2845,2.2843,2.2844,2.283,2.2831,2.2831,2.2829,2.2826,2.2823,2.2818,2.2812,2.28,2.2799,2.28,2.2803,2.2805,2.2801,2.2764,2.2798,2.2798,2.2797,2.2797,2.2797,2.288,2.2886,2.288,2.2882,2.2878,2.2875,2.2878,2.287,2.2871,2.2867,2.2859,2.2859,2.2851,2.2842,2.2837,2.2835,2.2828,2.2831,2.2832,2.2832,2.2833,2.2806,2.2834,2.2834,2.2834,2.2834,2.2834,0,2.2918,2.2913,2.2915,2.2911,2.2911,2.29,2.2896,2.2896,2.2896,2.289,2.2888,2.2886,2.2883,2.2871,2.2866,2.2866,2.286,2.2865,2.2864,2.2862,2.2841,2.2839,2.287,2.287,2.287,2.287,2.287,2.287,2.2938,2.2945,2.2938,2.2942,2.2937,2.2937,2.2935,2.2931,2.2926,2.2924,2.2921,2.2914,2.2904,2.2898,2.2893,2.2889,2.2887,2.2893,2.2888,2.2868,2.2864,2.2861,2.2859,2.2894,2.2894,2.2909,2.2909,2.2909]}]]